sat.trackr.live / text

‹ back to catalog

STARLINK-5853

NORAD 56881 · 2023-083F

PAYLOAD ACTIVE UNKNOWN

§ Identity

Operator
Country
US
Launch date
2023-06-12
Launch site
AFETR
Launch vehicle
Mass (kg)
RCS (m²)

Purposes: comms

External: N2YO · Heavens-Above · Gunter

§ Orbital elements

Epoch: 2026-05-24T21:59:48.884064Z

Period
94.27 min
Inclination
43.0028°
Eccentricity
0.0001347
Mean motion
15.27578069 rev/d
Perigee alt
482.1 km
Apogee alt
484.0 km
Semi-major
6,861.2 km
B*
2.3822e-5
RAAN
15.1038°
Arg perigee
248.2009°
Mean anomaly
111.8700°
Rev number
16,328

§ Raw data

STARLINK-58531 56881U 23083F   26144.91653801  .00000393  00000+0  23822-4 0  99992 56881  43.0028  15.1038 0001347 248.2009 111.8700 15.27578069163283

JSON: /api/v1/satellites/56881 · /tle

For live sub-satellite position, see the globe view (requires WebGL).

§ Visibility from observer

Set your observer location to see the next 7 days of passes ≥ 10°. The values pass through the URL so the page stays shareable.

No JS? Fill the form by hand. The geolocation button needs JavaScript.